Year,Month,Day,Hour,Minute,Value (Times are PST for insolation in W/m^2)
2011,07,20,00,00,0.00
2011,07,20,00,01,0.00
2011,07,20,00,02,0.00
2011,07,20,00,03,0.00
2011,07,20,00,04,0.00
2011,07,20,00,05,0.00
2011,07,20,00,06,0.00
2011,07,20,00,07,0.00
2011,07,20,00,08,0.00
2011,07,20,00,09,0.00
2011,07,20,00,10,0.00
2011,07,20,00,11,0.00
2011,07,20,00,12,0.00
2011,07,20,00,13,0.00
2011,07,20,00,14,0.00
2011,07,20,00,15,0.00
2011,07,20,00,16,0.00
2011,07,20,00,17,0.00
2011,07,20,00,18,0.00
2011,07,20,00,19,0.00
2011,07,20,00,20,0.00
2011,07,20,00,21,0.00
2011,07,20,00,22,0.00
2011,07,20,00,23,0.00
2011,07,20,00,24,0.00
2011,07,20,00,25,0.00
2011,07,20,00,26,0.00
2011,07,20,00,27,0.00
2011,07,20,00,28,0.00
2011,07,20,00,29,0.00
2011,07,20,00,30,0.00
2011,07,20,00,31,0.00
2011,07,20,00,32,0.00
2011,07,20,00,33,0.00
2011,07,20,00,34,0.00
2011,07,20,00,35,0.00
2011,07,20,00,36,0.00
2011,07,20,00,37,0.00
2011,07,20,00,38,0.00
2011,07,20,00,39,0.00
2011,07,20,00,40,0.00
2011,07,20,00,41,0.00
2011,07,20,00,42,0.00
2011,07,20,00,43,0.00
2011,07,20,00,44,0.00
2011,07,20,00,45,0.00
2011,07,20,00,46,0.00
2011,07,20,00,47,0.00
2011,07,20,00,48,0.00
2011,07,20,00,49,0.00
2011,07,20,00,50,0.00
2011,07,20,00,51,0.00
2011,07,20,00,52,0.00
2011,07,20,00,53,0.00
2011,07,20,00,54,0.00
2011,07,20,00,55,0.00
2011,07,20,00,56,0.00
2011,07,20,00,57,0.00
2011,07,20,00,58,0.00
2011,07,20,00,59,0.00
2011,07,20,01,00,0.00
2011,07,20,01,01,0.00
2011,07,20,01,02,0.00
2011,07,20,01,03,0.00
2011,07,20,01,04,0.00
2011,07,20,01,05,0.00
2011,07,20,01,06,0.00
2011,07,20,01,07,0.00
2011,07,20,01,08,0.00
2011,07,20,01,09,0.00
2011,07,20,01,10,0.00
2011,07,20,01,11,0.00
2011,07,20,01,12,0.00
2011,07,20,01,13,0.00
2011,07,20,01,14,0.00
2011,07,20,01,15,0.00
2011,07,20,01,16,0.00
2011,07,20,01,17,0.00
2011,07,20,01,18,0.00
2011,07,20,01,19,0.00
2011,07,20,01,20,0.00
2011,07,20,01,21,0.00
2011,07,20,01,22,0.00
2011,07,20,01,23,0.00
2011,07,20,01,24,0.00
2011,07,20,01,25,0.00
2011,07,20,01,26,0.00
2011,07,20,01,27,0.00
2011,07,20,01,28,0.00
2011,07,20,01,29,0.00
2011,07,20,01,30,0.00
2011,07,20,01,31,0.00
2011,07,20,01,32,0.00
2011,07,20,01,33,0.00
2011,07,20,01,34,0.00
2011,07,20,01,35,0.00
2011,07,20,01,36,0.00
2011,07,20,01,37,0.00
2011,07,20,01,38,0.00
2011,07,20,01,39,0.00
2011,07,20,01,40,0.00
2011,07,20,01,41,0.00
2011,07,20,01,42,0.00
2011,07,20,01,43,0.00
2011,07,20,01,44,0.00
2011,07,20,01,45,0.00
2011,07,20,01,46,0.00
2011,07,20,01,47,0.00
2011,07,20,01,48,0.00
2011,07,20,01,49,0.00
2011,07,20,01,50,0.00
2011,07,20,01,51,0.00
2011,07,20,01,52,0.00
2011,07,20,01,53,0.00
2011,07,20,01,54,0.00
2011,07,20,01,55,0.00
2011,07,20,01,56,0.00
2011,07,20,01,57,0.00
2011,07,20,01,58,0.00
2011,07,20,01,59,0.00
2011,07,20,02,00,0.00
2011,07,20,02,01,0.00
2011,07,20,02,02,0.00
2011,07,20,02,03,0.00
2011,07,20,02,04,0.00
2011,07,20,02,05,0.00
2011,07,20,02,06,0.00
2011,07,20,02,07,0.00
2011,07,20,02,08,0.00
2011,07,20,02,09,0.00
2011,07,20,02,10,0.00
2011,07,20,02,11,0.00
2011,07,20,02,12,0.00
2011,07,20,02,13,0.00
2011,07,20,02,14,0.00
2011,07,20,02,15,0.00
2011,07,20,02,16,0.00
2011,07,20,02,17,0.00
2011,07,20,02,18,0.00
2011,07,20,02,19,0.00
2011,07,20,02,20,0.00
2011,07,20,02,21,0.00
2011,07,20,02,22,0.00
2011,07,20,02,23,0.00
2011,07,20,02,24,0.00
2011,07,20,02,25,0.00
2011,07,20,02,26,0.00
2011,07,20,02,27,0.00
2011,07,20,02,28,0.00
2011,07,20,02,29,0.00
2011,07,20,02,30,0.00
2011,07,20,02,31,0.00
2011,07,20,02,32,0.00
2011,07,20,02,33,0.00
2011,07,20,02,34,0.00
2011,07,20,02,35,0.00
2011,07,20,02,36,0.00
2011,07,20,02,37,0.00
2011,07,20,02,38,0.00
2011,07,20,02,39,0.00
2011,07,20,02,40,0.00
2011,07,20,02,41,0.00
2011,07,20,02,42,0.00
2011,07,20,02,43,0.00
2011,07,20,02,44,0.00
2011,07,20,02,45,0.00
2011,07,20,02,46,0.00
2011,07,20,02,47,0.00
2011,07,20,02,48,0.00
2011,07,20,02,49,0.00
2011,07,20,02,50,0.00
2011,07,20,02,51,0.00
2011,07,20,02,52,0.00
2011,07,20,02,53,0.00
2011,07,20,02,54,0.00
2011,07,20,02,55,0.00
2011,07,20,02,56,0.00
2011,07,20,02,57,0.00
2011,07,20,02,58,0.00
2011,07,20,02,59,0.00
2011,07,20,03,00,0.00
2011,07,20,03,01,0.00
2011,07,20,03,02,0.00
2011,07,20,03,03,0.00
2011,07,20,03,04,0.00
2011,07,20,03,05,0.00
2011,07,20,03,06,0.00
2011,07,20,03,07,0.00
2011,07,20,03,08,0.00
2011,07,20,03,09,0.00
2011,07,20,03,10,0.00
2011,07,20,03,11,0.00
2011,07,20,03,12,0.00
2011,07,20,03,13,0.00
2011,07,20,03,14,0.00
2011,07,20,03,15,0.00
2011,07,20,03,16,0.00
2011,07,20,03,17,0.00
2011,07,20,03,18,0.00
2011,07,20,03,19,0.00
2011,07,20,03,20,0.00
2011,07,20,03,21,0.00
2011,07,20,03,22,0.00
2011,07,20,03,23,0.00
2011,07,20,03,24,0.00
2011,07,20,03,25,0.00
2011,07,20,03,26,0.00
2011,07,20,03,27,0.00
2011,07,20,03,28,0.00
2011,07,20,03,29,0.00
2011,07,20,03,30,0.00
2011,07,20,03,31,0.00
2011,07,20,03,32,0.00
2011,07,20,03,33,0.00
2011,07,20,03,34,0.00
2011,07,20,03,35,0.00
2011,07,20,03,36,0.00
2011,07,20,03,37,0.00
2011,07,20,03,38,0.00
2011,07,20,03,39,0.00
2011,07,20,03,40,0.00
2011,07,20,03,41,0.00
2011,07,20,03,42,0.00
2011,07,20,03,43,0.00
2011,07,20,03,44,0.00
2011,07,20,03,45,0.00
2011,07,20,03,46,0.00
2011,07,20,03,47,0.00
2011,07,20,03,48,0.00
2011,07,20,03,49,0.00
2011,07,20,03,50,0.00
2011,07,20,03,51,0.00
2011,07,20,03,52,0.00
2011,07,20,03,53,0.00
2011,07,20,03,54,0.00
2011,07,20,03,55,0.00
2011,07,20,03,56,0.00
2011,07,20,03,57,0.00
2011,07,20,03,58,0.00
2011,07,20,03,59,0.00
2011,07,20,04,00,0.00
2011,07,20,04,01,0.00
2011,07,20,04,02,0.00
2011,07,20,04,03,0.00
2011,07,20,04,04,0.00
2011,07,20,04,05,0.00
2011,07,20,04,06,0.00
2011,07,20,04,07,0.00
2011,07,20,04,08,0.00
2011,07,20,04,09,0.00
2011,07,20,04,10,0.00
2011,07,20,04,11,0.00
2011,07,20,04,12,0.00
2011,07,20,04,13,0.00
2011,07,20,04,14,0.00
2011,07,20,04,15,0.00
2011,07,20,04,16,0.00
2011,07,20,04,17,0.00
2011,07,20,04,18,0.00
2011,07,20,04,19,0.00
2011,07,20,04,20,0.00
2011,07,20,04,21,0.00
2011,07,20,04,22,0.00
2011,07,20,04,23,0.00
2011,07,20,04,24,0.00
2011,07,20,04,25,0.00
2011,07,20,04,26,0.00
2011,07,20,04,27,0.00
2011,07,20,04,28,0.00
2011,07,20,04,29,0.00
2011,07,20,04,30,0.00
2011,07,20,04,31,0.00
2011,07,20,04,32,0.00
2011,07,20,04,33,0.00
2011,07,20,04,34,0.00
2011,07,20,04,35,0.00
2011,07,20,04,36,0.00
2011,07,20,04,37,0.00
2011,07,20,04,38,0.00
2011,07,20,04,39,0.00
2011,07,20,04,40,0.00
2011,07,20,04,41,0.00
2011,07,20,04,42,0.00
2011,07,20,04,43,0.00
2011,07,20,04,44,0.00
2011,07,20,04,45,0.00
2011,07,20,04,46,0.00
2011,07,20,04,47,0.00
2011,07,20,04,48,0.00
2011,07,20,04,49,0.00
2011,07,20,04,50,0.00
2011,07,20,04,51,0.00
2011,07,20,04,52,0.00
2011,07,20,04,53,0.00
2011,07,20,04,54,0.00
2011,07,20,04,55,0.00
2011,07,20,04,56,0.00
2011,07,20,04,57,0.00
2011,07,20,04,58,0.00
2011,07,20,04,59,0.00
2011,07,20,05,00,0.00
2011,07,20,05,01,0.00
2011,07,20,05,02,0.00
2011,07,20,05,03,0.00
2011,07,20,05,04,0.00
2011,07,20,05,05,0.00
2011,07,20,05,06,0.00
2011,07,20,05,07,0.00
2011,07,20,05,08,0.00
2011,07,20,05,09,0.00
2011,07,20,05,10,0.00
2011,07,20,05,11,0.00
2011,07,20,05,12,0.00
2011,07,20,05,13,0.00
2011,07,20,05,14,0.00
2011,07,20,05,15,0.00
2011,07,20,05,16,0.00
2011,07,20,05,17,0.00
2011,07,20,05,18,0.00
2011,07,20,05,19,0.00
2011,07,20,05,20,0.00
2011,07,20,05,21,0.00
2011,07,20,05,22,0.00
2011,07,20,05,23,0.00
2011,07,20,05,24,0.00
2011,07,20,05,25,0.00
2011,07,20,05,26,0.00
2011,07,20,05,27,0.00
2011,07,20,05,28,0.00
2011,07,20,05,29,0.00
2011,07,20,05,30,0.00
2011,07,20,05,31,0.00
2011,07,20,05,32,0.00
2011,07,20,05,33,0.00
2011,07,20,05,34,0.00
2011,07,20,05,35,0.00
2011,07,20,05,36,0.00
2011,07,20,05,37,0.00
2011,07,20,05,38,0.00
2011,07,20,05,39,0.00
2011,07,20,05,40,0.00
2011,07,20,05,41,0.00
2011,07,20,05,42,0.20
2011,07,20,05,43,5.00
2011,07,20,05,44,5.00
2011,07,20,05,45,5.00
2011,07,20,05,46,6.00
2011,07,20,05,47,7.00
2011,07,20,05,48,7.00
2011,07,20,05,49,8.60
2011,07,20,05,50,11.70
2011,07,20,05,51,12.20
2011,07,20,05,52,14.50
2011,07,20,05,53,16.00
2011,07,20,05,54,17.30
2011,07,20,05,55,19.00
2011,07,20,05,56,19.00
2011,07,20,05,57,18.30
2011,07,20,05,58,18.00
2011,07,20,05,59,16.10
2011,07,20,06,00,16.00
2011,07,20,06,01,16.00
2011,07,20,06,02,16.00
2011,07,20,06,03,16.00
2011,07,20,06,04,16.00
2011,07,20,06,05,16.00
2011,07,20,06,06,17.50
2011,07,20,06,07,18.00
2011,07,20,06,08,18.00
2011,07,20,06,09,18.20
2011,07,20,06,10,19.00
2011,07,20,06,11,19.00
2011,07,20,06,12,19.00
2011,07,20,06,13,20.20
2011,07,20,06,14,21.00
2011,07,20,06,15,22.60
2011,07,20,06,16,24.90
2011,07,20,06,17,25.00
2011,07,20,06,18,25.70
2011,07,20,06,19,28.00
2011,07,20,06,20,28.90
2011,07,20,06,21,30.00
2011,07,20,06,22,31.30
2011,07,20,06,23,32.00
2011,07,20,06,24,32.00
2011,07,20,06,25,32.10
2011,07,20,06,26,33.00
2011,07,20,06,27,33.50
2011,07,20,06,28,35.00
2011,07,20,06,29,35.00
2011,07,20,06,30,35.00
2011,07,20,06,31,36.40
2011,07,20,06,32,38.50
2011,07,20,06,33,39.00
2011,07,20,06,34,40.00
2011,07,20,06,35,40.00
2011,07,20,06,36,40.00
2011,07,20,06,37,40.00
2011,07,20,06,38,39.50
2011,07,20,06,39,39.00
2011,07,20,06,40,39.00
2011,07,20,06,41,39.00
2011,07,20,06,42,40.00
2011,07,20,06,43,42.60
2011,07,20,06,44,46.30
2011,07,20,06,45,47.70
2011,07,20,06,46,49.90
2011,07,20,06,47,52.10
2011,07,20,06,48,53.70
2011,07,20,06,49,55.50
2011,07,20,06,50,57.80
2011,07,20,06,51,62.30
2011,07,20,06,52,65.80
2011,07,20,06,53,69.90
2011,07,20,06,54,74.00
2011,07,20,06,55,80.10
2011,07,20,06,56,86.00
2011,07,20,06,57,89.40
2011,07,20,06,58,90.00
2011,07,20,06,59,90.90
2011,07,20,07,00,93.00
2011,07,20,07,01,93.50
2011,07,20,07,02,95.00
2011,07,20,07,03,95.00
2011,07,20,07,04,96.10
2011,07,20,07,05,97.70
2011,07,20,07,06,98.00
2011,07,20,07,07,97.20
2011,07,20,07,08,97.00
2011,07,20,07,09,97.20
2011,07,20,07,10,98.00
2011,07,20,07,11,98.80
2011,07,20,07,12,100.00
2011,07,20,07,13,100.00
2011,07,20,07,14,100.00
2011,07,20,07,15,97.70
2011,07,20,07,16,95.20
2011,07,20,07,17,97.10
2011,07,20,07,18,99.00
2011,07,20,07,19,102.70
2011,07,20,07,20,104.00
2011,07,20,07,21,104.00
2011,07,20,07,22,104.00
2011,07,20,07,23,104.00
2011,07,20,07,24,104.00
2011,07,20,07,25,104.00
2011,07,20,07,26,104.20
2011,07,20,07,27,106.00
2011,07,20,07,28,109.70
2011,07,20,07,29,111.90
2011,07,20,07,30,113.00
2011,07,20,07,31,111.60
2011,07,20,07,32,109.50
2011,07,20,07,33,109.00
2011,07,20,07,34,111.10
2011,07,20,07,35,113.60
2011,07,20,07,36,117.50
2011,07,20,07,37,123.40
2011,07,20,07,38,128.50
2011,07,20,07,39,132.50
2011,07,20,07,40,131.00
2011,07,20,07,41,124.40
2011,07,20,07,42,116.70
2011,07,20,07,43,112.40
2011,07,20,07,44,109.00
2011,07,20,07,45,108.30
2011,07,20,07,46,107.00
2011,07,20,07,47,107.00
2011,07,20,07,48,105.60
2011,07,20,07,49,105.00
2011,07,20,07,50,106.70
2011,07,20,07,51,107.10
2011,07,20,07,52,109.00
2011,07,20,07,53,109.60
2011,07,20,07,54,111.70
2011,07,20,07,55,113.50
2011,07,20,07,56,116.40
2011,07,20,07,57,120.10
2011,07,20,07,58,124.00
2011,07,20,07,59,126.80
2011,07,20,08,00,128.00
2011,07,20,08,01,128.00
2011,07,20,08,02,128.00
2011,07,20,08,03,128.80
2011,07,20,08,04,132.00
2011,07,20,08,05,135.90
2011,07,20,08,06,140.00
2011,07,20,08,07,143.40
2011,07,20,08,08,147.90
2011,07,20,08,09,149.30
2011,07,20,08,10,152.00
2011,07,20,08,11,155.40
2011,07,20,08,12,156.00
2011,07,20,08,13,154.40
2011,07,20,08,14,149.70
2011,07,20,08,15,146.50
2011,07,20,08,16,146.00
2011,07,20,08,17,147.90
2011,07,20,08,18,147.60
2011,07,20,08,19,144.80
2011,07,20,08,20,139.90
2011,07,20,08,21,134.50
2011,07,20,08,22,130.80
2011,07,20,08,23,130.00
2011,07,20,08,24,133.40
2011,07,20,08,25,140.60
2011,07,20,08,26,147.10
2011,07,20,08,27,154.20
2011,07,20,08,28,159.40
2011,07,20,08,29,163.30
2011,07,20,08,30,167.20
2011,07,20,08,31,170.90
2011,07,20,08,32,173.60
2011,07,20,08,33,177.40
2011,07,20,08,34,179.00
2011,07,20,08,35,179.40
2011,07,20,08,36,181.00
2011,07,20,08,37,180.30
2011,07,20,08,38,179.00
2011,07,20,08,39,179.00
2011,07,20,08,40,180.40
2011,07,20,08,41,181.00
2011,07,20,08,42,182.90
2011,07,20,08,43,185.10
2011,07,20,08,44,185.80
2011,07,20,08,45,184.30
2011,07,20,08,46,181.30
2011,07,20,08,47,176.50
2011,07,20,08,48,169.40
2011,07,20,08,49,164.00
2011,07,20,08,50,160.40
2011,07,20,08,51,158.10
2011,07,20,08,52,158.30
2011,07,20,08,53,160.00
2011,07,20,08,54,160.00
2011,07,20,08,55,161.00
2011,07,20,08,56,162.60
2011,07,20,08,57,164.40
2011,07,20,08,58,168.00
2011,07,20,08,59,170.80
2011,07,20,09,00,172.10
2011,07,20,09,01,174.00
2011,07,20,09,02,174.60
2011,07,20,09,03,176.80
2011,07,20,09,04,178.00
2011,07,20,09,05,178.60
2011,07,20,09,06,180.40
2011,07,20,09,07,184.40
2011,07,20,09,08,187.90
2011,07,20,09,09,188.00
2011,07,20,09,10,187.20
2011,07,20,09,11,183.60
2011,07,20,09,12,179.00
2011,07,20,09,13,175.00
2011,07,20,09,14,172.00
2011,07,20,09,15,171.00
2011,07,20,09,16,171.00
2011,07,20,09,17,172.10
2011,07,20,09,18,174.00
2011,07,20,09,19,173.50
2011,07,20,09,20,172.00
2011,07,20,09,21,170.50
2011,07,20,09,22,170.70
2011,07,20,09,23,176.20
2011,07,20,09,24,180.40
2011,07,20,09,25,184.60
2011,07,20,09,26,186.00
2011,07,20,09,27,186.00
2011,07,20,09,28,185.70
2011,07,20,09,29,185.00
2011,07,20,09,30,185.00
2011,07,20,09,31,186.80
2011,07,20,09,32,189.50
2011,07,20,09,33,194.00
2011,07,20,09,34,199.10
2011,07,20,09,35,204.80
2011,07,20,09,36,210.00
2011,07,20,09,37,215.40
2011,07,20,09,38,222.50
2011,07,20,09,39,229.90
2011,07,20,09,40,238.60
2011,07,20,09,41,244.80
2011,07,20,09,42,249.40
2011,07,20,09,43,250.90
2011,07,20,09,44,247.20
2011,07,20,09,45,243.20
2011,07,20,09,46,241.80
2011,07,20,09,47,244.60
2011,07,20,09,48,249.20
2011,07,20,09,49,255.90
2011,07,20,09,50,263.60
2011,07,20,09,51,268.60
2011,07,20,09,52,268.40
2011,07,20,09,53,264.80
2011,07,20,09,54,263.30
2011,07,20,09,55,262.00
2011,07,20,09,56,263.10
2011,07,20,09,57,264.00
2011,07,20,09,58,264.00
2011,07,20,09,59,264.00
2011,07,20,10,00,265.10
2011,07,20,10,01,267.40
2011,07,20,10,02,270.50
2011,07,20,10,03,275.40
2011,07,20,10,04,280.50
2011,07,20,10,05,285.80
2011,07,20,10,06,294.30
2011,07,20,10,07,302.60
2011,07,20,10,08,311.70
2011,07,20,10,09,320.50
2011,07,20,10,10,326.20
2011,07,20,10,11,333.90
2011,07,20,10,12,346.40
2011,07,20,10,13,360.40
2011,07,20,10,14,374.80
2011,07,20,10,15,388.60
2011,07,20,10,16,403.80
2011,07,20,10,17,419.60
2011,07,20,10,18,426.00
2011,07,20,10,19,434.20
2011,07,20,10,20,441.70
2011,07,20,10,21,438.00
2011,07,20,10,22,423.30
2011,07,20,10,23,414.30
2011,07,20,10,24,437.00
2011,07,20,10,25,420.70
2011,07,20,10,26,409.80
2011,07,20,10,27,407.00
2011,07,20,10,28,400.90
2011,07,20,10,29,393.60
2011,07,20,10,30,387.50
2011,07,20,10,31,382.10
2011,07,20,10,32,374.80
2011,07,20,10,33,365.40
2011,07,20,10,34,359.50
2011,07,20,10,35,351.40
2011,07,20,10,36,348.00
2011,07,20,10,37,348.70
2011,07,20,10,38,351.40
2011,07,20,10,39,352.50
2011,07,20,10,40,352.00
2011,07,20,10,41,349.00
2011,07,20,10,42,345.50
2011,07,20,10,43,343.10
2011,07,20,10,44,343.00
2011,07,20,10,45,343.80
2011,07,20,10,46,348.70
2011,07,20,10,47,356.00
2011,07,20,10,48,359.60
2011,07,20,10,49,359.40
2011,07,20,10,50,356.00
2011,07,20,10,51,350.40
2011,07,20,10,52,348.00
2011,07,20,10,53,348.40
2011,07,20,10,54,351.80
2011,07,20,10,55,357.00
2011,07,20,10,56,363.00
2011,07,20,10,57,369.10
2011,07,20,10,58,372.50
2011,07,20,10,59,375.40
2011,07,20,11,00,378.00
2011,07,20,11,01,381.90
2011,07,20,11,02,389.10
2011,07,20,11,03,398.00
2011,07,20,11,04,403.20
2011,07,20,11,05,410.00
2011,07,20,11,06,419.30
2011,07,20,11,07,418.20
2011,07,20,11,08,415.30
2011,07,20,11,09,410.90
2011,07,20,11,10,407.70
2011,07,20,11,11,405.40
2011,07,20,11,12,404.00
2011,07,20,11,13,405.00
2011,07,20,11,14,410.30
2011,07,20,11,15,421.20
2011,07,20,11,16,435.50
2011,07,20,11,17,451.30
2011,07,20,11,18,463.60
2011,07,20,11,19,473.00
2011,07,20,11,20,479.60
2011,07,20,11,21,492.80
2011,07,20,11,22,499.00
2011,07,20,11,23,488.80
2011,07,20,11,24,471.00
2011,07,20,11,25,466.30
2011,07,20,11,26,458.50
2011,07,20,11,27,447.70
2011,07,20,11,28,438.30
2011,07,20,11,29,442.60
2011,07,20,11,30,446.60
2011,07,20,11,31,442.60
2011,07,20,11,32,441.00
2011,07,20,11,33,446.60
2011,07,20,11,34,462.50
2011,07,20,11,35,512.90
2011,07,20,11,36,521.40
2011,07,20,11,37,549.70
2011,07,20,11,38,540.60
2011,07,20,11,39,547.50
2011,07,20,11,40,555.60
2011,07,20,11,41,543.00
2011,07,20,11,42,541.70
2011,07,20,11,43,555.60
2011,07,20,11,44,557.00
2011,07,20,11,45,578.50
2011,07,20,11,46,623.30
2011,07,20,11,47,579.00
2011,07,20,11,48,570.20
2011,07,20,11,49,554.30
2011,07,20,11,50,536.50
2011,07,20,11,51,522.00
2011,07,20,11,52,497.70
2011,07,20,11,53,472.30
2011,07,20,11,54,453.40
2011,07,20,11,55,441.40
2011,07,20,11,56,430.50
2011,07,20,11,57,420.00
2011,07,20,11,58,407.90
2011,07,20,11,59,388.60
2011,07,20,12,00,372.50
2011,07,20,12,01,355.30
2011,07,20,12,02,342.80
2011,07,20,12,03,332.70
2011,07,20,12,04,330.00
2011,07,20,12,05,333.30
2011,07,20,12,06,346.10
2011,07,20,12,07,375.60
2011,07,20,12,08,419.00
2011,07,20,12,09,415.20
2011,07,20,12,10,409.10
2011,07,20,12,11,402.50
2011,07,20,12,12,398.30
2011,07,20,12,13,397.00
2011,07,20,12,14,399.40
2011,07,20,12,15,402.30
2011,07,20,12,16,397.40
2011,07,20,12,17,390.60
2011,07,20,12,18,384.50
2011,07,20,12,19,379.20
2011,07,20,12,20,374.50
2011,07,20,12,21,369.00
2011,07,20,12,22,364.00
2011,07,20,12,23,360.10
2011,07,20,12,24,356.00
2011,07,20,12,25,353.40
2011,07,20,12,26,356.90
2011,07,20,12,27,363.00
2011,07,20,12,28,371.80
2011,07,20,12,29,383.50
2011,07,20,12,30,394.00
2011,07,20,12,31,401.80
2011,07,20,12,32,404.00
2011,07,20,12,33,403.20
2011,07,20,12,34,399.60
2011,07,20,12,35,396.00
2011,07,20,12,36,395.60
2011,07,20,12,37,393.50
2011,07,20,12,38,389.30
2011,07,20,12,39,382.50
2011,07,20,12,40,380.00
2011,07,20,12,41,382.10
2011,07,20,12,42,389.00
2011,07,20,12,43,401.70
2011,07,20,12,44,407.70
2011,07,20,12,45,440.80
2011,07,20,12,46,463.80
2011,07,20,12,47,492.90
2011,07,20,12,48,510.00
2011,07,20,12,49,510.00
2011,07,20,12,50,614.20
2011,07,20,12,51,611.30
2011,07,20,12,52,588.40
2011,07,20,12,53,612.50
2011,07,20,12,54,599.40
2011,07,20,12,55,607.80
2011,07,20,12,56,616.00
2011,07,20,12,57,611.60
2011,07,20,12,58,605.90
2011,07,20,12,59,592.20
2011,07,20,13,00,578.70
2011,07,20,13,01,569.00
2011,07,20,13,02,563.20
2011,07,20,13,03,568.70
2011,07,20,13,04,580.70
2011,07,20,13,05,591.50
2011,07,20,13,06,620.00
2011,07,20,13,07,577.30
2011,07,20,13,08,556.70
2011,07,20,13,09,564.30
2011,07,20,13,10,579.10
2011,07,20,13,11,593.50
2011,07,20,13,12,605.20
2011,07,20,13,13,619.70
2011,07,20,13,14,635.60
2011,07,20,13,15,649.30
2011,07,20,13,16,656.40
2011,07,20,13,17,704.10
2011,07,20,13,18,778.50
2011,07,20,13,19,782.00
2011,07,20,13,20,751.40
2011,07,20,13,21,707.90
2011,07,20,13,22,741.00
2011,07,20,13,23,743.00
2011,07,20,13,24,715.60
2011,07,20,13,25,665.40
2011,07,20,13,26,662.30
2011,07,20,13,27,663.00
2011,07,20,13,28,651.00
2011,07,20,13,29,615.00
2011,07,20,13,30,620.60
2011,07,20,13,31,624.50
2011,07,20,13,32,616.20
2011,07,20,13,33,607.70
2011,07,20,13,34,594.10
2011,07,20,13,35,594.70
2011,07,20,13,36,612.80
2011,07,20,13,37,631.90
2011,07,20,13,38,640.00
2011,07,20,13,39,646.00
2011,07,20,13,40,662.30
2011,07,20,13,41,676.30
2011,07,20,13,42,705.70
2011,07,20,13,43,714.00
2011,07,20,13,44,713.30
2011,07,20,13,45,710.30
2011,07,20,13,46,711.40
2011,07,20,13,47,723.40
2011,07,20,13,48,826.90
2011,07,20,13,49,874.00
2011,07,20,13,50,718.00
2011,07,20,13,51,622.30
2011,07,20,13,52,559.60
2011,07,20,13,53,582.50
2011,07,20,13,54,558.00
2011,07,20,13,55,579.90
2011,07,20,13,56,598.30
2011,07,20,13,57,571.20
2011,07,20,13,58,551.30
2011,07,20,13,59,552.20
2011,07,20,14,00,550.60
2011,07,20,14,01,594.00
2011,07,20,14,02,614.20
2011,07,20,14,03,692.50
2011,07,20,14,04,681.40
2011,07,20,14,05,691.00
2011,07,20,14,06,691.00
2011,07,20,14,07,926.00
2011,07,20,14,08,1020.00
2011,07,20,14,09,1020.00
2011,07,20,14,10,1020.00
2011,07,20,14,11,924.00
2011,07,20,14,12,579.30
2011,07,20,14,13,615.00
2011,07,20,14,14,615.00
2011,07,20,14,15,543.00
2011,07,20,14,16,484.60
2011,07,20,14,17,457.40
2011,07,20,14,18,441.20
2011,07,20,14,19,431.60
2011,07,20,14,20,429.90
2011,07,20,14,21,433.40
2011,07,20,14,22,441.00
2011,07,20,14,23,453.80
2011,07,20,14,24,485.70
2011,07,20,14,25,499.00
2011,07,20,14,26,499.00
2011,07,20,14,27,475.30
2011,07,20,14,28,470.20
2011,07,20,14,29,479.00
2011,07,20,14,30,495.40
2011,07,20,14,31,513.00
2011,07,20,14,32,539.20
2011,07,20,14,33,554.00
2011,07,20,14,34,820.90
2011,07,20,14,35,868.00
2011,07,20,14,36,868.00
2011,07,20,14,37,761.10
2011,07,20,14,38,484.90
2011,07,20,14,39,458.10
2011,07,20,14,40,442.10
2011,07,20,14,41,441.50
2011,07,20,14,42,449.90
2011,07,20,14,43,469.10
2011,07,20,14,44,483.50
2011,07,20,14,45,513.40
2011,07,20,14,46,591.00
2011,07,20,14,47,599.00
2011,07,20,14,48,569.40
2011,07,20,14,49,569.40
2011,07,20,14,50,601.00
2011,07,20,14,51,495.40
2011,07,20,14,52,469.00
2011,07,20,14,53,543.40
2011,07,20,14,54,965.00
2011,07,20,14,55,965.00
2011,07,20,14,56,965.00
2011,07,20,14,57,965.00
2011,07,20,14,58,1035.70
2011,07,20,14,59,1042.60
2011,07,20,15,00,1057.90
2011,07,20,15,01,1062.00
2011,07,20,15,02,1062.00
2011,07,20,15,03,1062.00
2011,07,20,15,04,1062.00
2011,07,20,15,05,1062.00
2011,07,20,15,06,619.80
2011,07,20,15,07,322.90
2011,07,20,15,08,330.00
2011,07,20,15,09,367.30
2011,07,20,15,10,371.00
2011,07,20,15,11,524.60
2011,07,20,15,12,1131.30
2011,07,20,15,13,1116.00
2011,07,20,15,14,1116.00
2011,07,20,15,15,1105.60
2011,07,20,15,16,1100.00
2011,07,20,15,17,1100.00
2011,07,20,15,18,491.80
2011,07,20,15,19,406.00
2011,07,20,15,20,406.00
2011,07,20,15,21,441.00
2011,07,20,15,22,502.90
2011,07,20,15,23,456.70
2011,07,20,15,24,432.10
2011,07,20,15,25,454.80
2011,07,20,15,26,432.20
2011,07,20,15,27,395.20
2011,07,20,15,28,370.00
2011,07,20,15,29,369.00
2011,07,20,15,30,375.20
2011,07,20,15,31,380.80
2011,07,20,15,32,387.00
2011,07,20,15,33,387.00
2011,07,20,15,34,452.50
2011,07,20,15,35,464.00
2011,07,20,15,36,523.00
2011,07,20,15,37,517.50
2011,07,20,15,38,466.60
2011,07,20,15,39,414.30
2011,07,20,15,40,393.10
2011,07,20,15,41,437.30
2011,07,20,15,42,429.80
2011,07,20,15,43,435.30
2011,07,20,15,44,466.90
2011,07,20,15,45,518.70
2011,07,20,15,46,517.00
2011,07,20,15,47,510.60
2011,07,20,15,48,515.40
2011,07,20,15,49,533.00
2011,07,20,15,50,533.00
2011,07,20,15,51,533.00
2011,07,20,15,52,491.90
2011,07,20,15,53,402.40
2011,07,20,15,54,390.60
2011,07,20,15,55,401.00
2011,07,20,15,56,401.00
2011,07,20,15,57,401.00
2011,07,20,15,58,456.10
2011,07,20,15,59,454.30
2011,07,20,16,00,395.30
2011,07,20,16,01,364.40
2011,07,20,16,02,348.40
2011,07,20,16,03,337.80
2011,07,20,16,04,333.30
2011,07,20,16,05,332.00
2011,07,20,16,06,332.00
2011,07,20,16,07,337.90
2011,07,20,16,08,349.20
2011,07,20,16,09,364.60
2011,07,20,16,10,389.30
2011,07,20,16,11,407.20
2011,07,20,16,12,392.00
2011,07,20,16,13,402.00
2011,07,20,16,14,429.60
2011,07,20,16,15,453.60
2011,07,20,16,16,497.70
2011,07,20,16,17,464.20
2011,07,20,16,18,445.70
2011,07,20,16,19,442.00
2011,07,20,16,20,441.80
2011,07,20,16,21,472.00
2011,07,20,16,22,487.00
2011,07,20,16,23,440.20
2011,07,20,16,24,462.40
2011,07,20,16,25,494.00
2011,07,20,16,26,388.60
2011,07,20,16,27,413.90
2011,07,20,16,28,494.20
2011,07,20,16,29,524.70
2011,07,20,16,30,515.20
2011,07,20,16,31,494.00
2011,07,20,16,32,461.00
2011,07,20,16,33,461.00
2011,07,20,16,34,461.00
2011,07,20,16,35,872.60
2011,07,20,16,36,921.00
2011,07,20,16,37,921.00
2011,07,20,16,38,791.70
2011,07,20,16,39,533.00
2011,07,20,16,40,568.60
2011,07,20,16,41,601.00
2011,07,20,16,42,601.00
2011,07,20,16,43,601.00
2011,07,20,16,44,601.00
2011,07,20,16,45,601.00
2011,07,20,16,46,563.20
2011,07,20,16,47,450.00
2011,07,20,16,48,651.90
2011,07,20,16,49,894.30
2011,07,20,16,50,903.20
2011,07,20,16,51,861.10
2011,07,20,16,52,849.00
2011,07,20,16,53,620.00
2011,07,20,16,54,575.00
2011,07,20,16,55,388.00
2011,07,20,16,56,500.00
2011,07,20,16,57,682.00
2011,07,20,16,58,682.00
2011,07,20,16,59,441.30
2011,07,20,17,00,315.40
2011,07,20,17,01,372.40
2011,07,20,17,02,415.00
2011,07,20,17,03,429.50
2011,07,20,17,04,479.90
2011,07,20,17,05,500.70
2011,07,20,17,06,495.60
2011,07,20,17,07,478.00
2011,07,20,17,08,478.00